Location: Fort Collins
(40.5850°N, 105.0840°W)
Time: 13:38:59
(UTC-07:00)

Daily predictions for brighter satellites

Satellite Brightness Start Highest point End
(mag) Time Altitude Azimuth Time Altitude Azimuth Time Altitude Azimuth
SKYMED 2 3.6 18:04:25 10° NNE 18:08:46 82° ESE 18:13:06 10° S
Cosmos 2227 Rocket 2.8 18:03:19 10° SW 18:08:54 63° WNW 18:14:31 10° NNE
OAO 2 Rocket 4.2 18:04:33 10° SW 18:09:07 37° S 18:13:39 10° ESE
Cosmos 2237 Rocket 2.9 18:05:03 10° NNW 18:10:35 61° WSW 18:16:05 10° S
Tiangong 2 2.6 18:11:10 10° W 18:14:05 34° SSW 18:16:59 10° SE
BREEZE-M DEB (TANK) 3.1 18:12:35 10° NW 18:14:35 21° NNE 18:16:46 10° ENE
ATLAS 3B R/B 4.3 18:08:19 10° WSW 18:14:38 32° NW 18:20:46 10° NNE
FREGAT/IRIS 4.0 18:13:58 10° ESE 18:16:08 19° ENE 18:18:20 10° NNE
SL-16 R/B 2.2 18:10:33 10° NNW 18:16:11 61° ENE 18:21:46 10° SE
Cosmos 1452 Rocket 3.5 18:11:03 10° NNW 18:16:18 70° ENE 18:21:31 10° SSE
Cosmos 1975 Rocket 4.4 18:13:15 10° NNE 18:16:33 20° ENE 18:19:52 10° ESE
ERS-2 3.2 18:15:19 10° SE 18:18:23 25° ENE 18:21:26 10° NNE
Cosmos 1048 Rocket 4.3 18:14:36 10° S 18:19:38 45° ESE 18:24:39 10° NNE
H-2A R/B 3.2 18:16:18 10° SE 18:19:56 39° ENE 18:23:36 10° N
Cosmos 2297 Rocket 3.0 18:16:56 10° SW 18:22:28 56° WNW 18:28:03 10° NNE
SJ-6B 4.1 18:22:01 10° ESE 18:24:48 20° ENE 18:27:37 10° NNE
Cosmos 44 Rocket 3.4 18:21:47 10° NNW 18:26:51 74° ENE 18:31:58 10° SE
SPOT 3 Rocket 3.5 18:23:16 10° SSE 18:28:26 74° ENE 18:33:39 10° N
Resurs 01 Rocket 3.4 18:29:27 12° ENE 18:30:30 12° ENE 18:32:21 10° NE
Cosmos 405 4.3 18:30:44 10° SSW 18:34:05 43° WNW 18:37:28 10° N
Cosmos 1603 4.5 18:29:50 10° N 18:34:46 30° ENE 18:39:39 10° ESE
Cosmos 1420 Rocket 4.0 18:29:34 10° NNW 18:34:53 82° ENE 18:40:11 10° SSE
SL-8 R/B 4.2 18:30:57 10° W 18:35:38 54° NNW 18:40:10 11° NE
Cosmos 1812 3.1 18:32:09 10° NNW 18:36:01 70° W 18:39:51 10° S
Cosmos 1378 Rocket 3.5 18:33:13 10° N 18:37:37 67° E 18:42:01 10° SSE
Aureole 3 4.2 18:32:44 10° SSW 18:38:33 75° W 18:43:05 10° N
CZ-4C R/B 4.0 18:33:54 10° NNW 18:39:23 24° NE 18:43:52 15° E
Okean 1 3.5 18:35:54 10° N 18:39:46 46° E 18:43:35 10° SSE
Meteor 1-20 Rocket 4.2 18:34:04 10° S 18:39:46 79° E 18:45:35 10° NNE
CZ-2D R/B 4.3 18:38:44 10° SE 18:42:00 26° ENE 18:45:16 10° NNE
ALOS 3.6 18:40:54 10° S 18:45:21 44° W 18:49:49 10° NNW
Cosmos 1782 Rocket 3.7 18:43:23 10° S 18:47:41 52° E 18:51:58 10° NNE
Cosmos 44 4.2 18:43:46 10° NW 18:48:43 55° WSW 18:53:51 10° SSE
Cosmos 2263 Rocket 3.4 18:46:08 10° SE 18:50:01 20° E 18:51:04 19° E
SeaSat 1 3.2 18:47:22 16° ESE 18:50:32 31° NE 18:54:50 10° N
Cosmos 1602 4.0 18:47:00 10° SSE 18:50:40 42° E 18:54:22 10° NNE
USA 186 3.9 18:52:49 13° NE 18:52:49 13° NE 18:53:33 10° NNE
Sich 1 Rocket 3.6 18:53:54 10° S 18:58:24 88° WNW 19:02:53 10° N
Tsikada Rocket 4.1 18:53:47 10° S 19:00:02 59° E 19:06:19 10° NNE
USA 215 3.4 18:56:01 13° ENE 19:01:42 51° SE 19:07:59 10° SSW
Envisat 3.2 19:00:27 10° SE 19:05:18 48° ENE 19:10:11 10° N
OE (NEXTSAT) 4.3 19:02:14 10° WSW 19:05:47 84° SSE 19:07:05 37° ENE
HJ-1C 3.3 19:03:18 10° SSE 19:06:41 75° ENE 19:10:06 10° N
Meteor 1-4 Rocket 2.8 19:03:38 10° SSE 19:06:56 40° E 19:08:06 30° NE
FALCON 9 R/B 4.4 19:01:25 10° W 19:08:41 64° S 19:28:24 20° ESE
Okean 2 Rocket 3.0 19:06:54 10° S 19:11:11 57° E 19:15:30 10° NNE
Cosmos 1437 Rocket 2.9 19:07:30 10° SSW 19:11:33 78° W 19:15:40 10° N
Cosmos 1464 Rocket 4.5 19:06:12 10° NNW 19:12:15 62° W 19:18:16 10° S
Meteor 2-4 Rocket 4.0 19:08:27 10° N 19:14:00 46° ENE 19:18:20 16° SE
GPS 2-05 Rocket1 4.5 19:12:16 10° SSW 19:14:17 18° S 19:14:17 18° S
Cosmos 2227 4.1 19:09:07 10° SSW 19:14:50 79° ESE 19:20:32 10° NNE
Cosmos 494 Rocket 4.0 19:11:30 10° S 19:16:33 54° ESE 19:21:36 10° NNE
Thor Agena Rocket 3.4 19:13:36 10° NNE 19:18:41 71° ESE 19:23:42 10° S
Meteor 1-19 Rocket 4.0 19:13:26 10° N 19:18:57 74° E 19:24:31 10° SSE
Cosmos 1269 Rocket 4.4 19:15:52 10° SSW 19:21:05 66° WNW 19:26:22 10° NNE
Cosmos 921 Rocket 3.7 19:16:42 10° NNW 19:21:08 58° WSW 19:25:29 10° S
Cosmos 1110 Rocket 4.0 19:15:57 10° NNW 19:21:12 62° ENE 19:24:19 24° SE
Meteor 1-11 Rocket 3.6 19:20:06 10° S 19:25:35 63° E 19:31:13 10° NNE
Gbstr 26 Del rocket 2.6 19:29:59 10° WSW 19:33:42 77° NW 19:34:08 66° NNE
CENTAUR R/B 3.7 19:28:17 10° WSW 19:34:01 41° NW 19:40:32 10° NNE
USA 267 4.1 19:32:55 27° ENE 19:34:59 33° NNE 19:40:40 10° NW
Cosmos 1939 Rocket 3.8 19:38:33 36° NNE 19:38:33 36° NNE 19:41:14 10° N
Cosmos 1943 3.2 19:34:55 10° NNW 19:40:29 55° ENE 19:41:12 51° E
Cosmos 2346 Rocket 4.5 19:38:18 10° S 19:44:30 82° W 19:50:41 10° N
H-2A R/B 4.5 19:49:55 10° NNE 19:49:55 10° NNE 19:49:55 10° NNE
Resurs 1-3 3.6 19:49:59 70° N 19:49:59 70° N 19:53:56 10° N
COSMOS 2455 2.7 19:45:42 10° SSW 19:51:44 86° ESE 19:54:57 29° NNE
Cosmos 1331 Rocket 4.0 19:46:46 10° NNW 19:52:06 80° WSW 19:53:56 42° S
Alouette 2 Rocket 4.5 19:48:43 10° SSW 19:57:35 - N 19:50:49 32° SSW
OAO 2 Rocket 3.9 19:48:48 10° WSW 19:53:25 43° S 19:53:25 43° S
Spot 2 Rocket 3.4 19:55:19 70° NE 19:55:19 70° NE 20:00:04 10° N
Geosat 3.8 19:57:40 82° ESE 19:57:40 82° ESE 20:02:40 10° SSW
Cosmos 1634 Rocket 3.9 19:54:24 10° N 20:00:36 89° W 20:04:01 28° S
Meteor 1-23 Rocket 4.1 19:59:55 10° N 20:05:47 81° E 20:05:56 81° ESE
Resurs 01 Rocket 2.1 20:07:01 58° WNW 20:07:01 58° WNW 20:10:49 10° NNW
Cosmos 2251 Rocket 3.7 20:02:19 10° SSW 20:06:38 62° SSW 20:06:38 62° SSW
ATLAS CENTAUR R/B 3.0 20:04:32 10° NNW 20:06:37 28° NNW 20:06:37 28° NNW
Cosmos 2142 Rocket 4.4 20:04:34 10° N 20:10:57 87° W 20:12:41 51° S
SeaSat 1 3.7 20:27:10 33° SW 20:27:57 35° WSW 20:32:28 10° NW
CZ-4C R/B 2.8 20:21:40 10° NNW 20:28:57 82° NE 20:29:06 82° ENE
Cosmos 2263 Rocket 2.8 20:27:59 10° SW 20:32:58 53° W 20:32:58 53° W
USA 215 3.9 20:43:22 44° N 20:44:39 50° NNW 20:50:53 10° WSW
USA 267 4.4 21:20:16 38° NW 21:20:16 38° NW 21:24:03 10° NW
